CAPE
37 38 47 37 47 58 51 57 44 37 19 30 37 32 26 23 26 3 1 0 3 17 21 12 0 19 241 212 146 4 21 1 1 6 3 0 1 10 0 0 0 0 0 587 1164
34 33 41 30 35 25 22 38 46 38 37 18 32 45 31 25 20 6 0 0 0 8 41 18 1 4 63 131 131 22 0 0 0 0 1 15 0 0 0 0 0 0 9 292 1007
34 29 30 34 42 39 33 38 38 36 32 38 41 53 66 40 0 0 0 0 0 3 45 39 14 2 22 70 89 6 0 0 0 0 0 0 0 0 0 0 0 0 0 0 567
26 36 31 39 40 40 40 46 43 43 55 41 47 63 36 20 0 20 1 0 0 0 54 53 4 23 26 8 28 1 0 0 0 24 0 0 0 0 0 0 0 0 0 0 18
34 22 13 23 29 34 33 52 53 51 47 33 28 19 13 14 0 0 0 0 0 17 44 48 9 6 4 10 79 19 0 0 0 4 0 0 0 0 0 0 0 0 0 0 57
32 31 29 22 12 9 24 38 65 60 90 82 67 68 19 6 0 7 0 0 0 1 5 36 16 0 25 25 30 48 50 8 7 0 0 0 0 0 0 0 0 0 0 0 0
28 20 4 8 23 26 49 44 64 69 106 155 137 106 21 2 7 29 0 0 0 0 0 36 60 7 7 38 35 80 44 39 9 0 0 0 0 0 0 0 0 0 0 0 0
24 18 9 27 31 48 90 94 78 44 95 192 207 96 6 3 2 0 0 0 0 0 0 0 0 35 14 49 37 34 28 26 29 1 0 0 0 0 0 0 0 0 0 0 0
14 16 14 20 32 44 89 118 104 81 92 162 87 68 1 15 0 0 0 0 0 0 0 0 0 50 33 19 28 41 19 0 4 15 2 0 0 0 0 0 0 0 0 0 0
12 17 35 28 21 21 58 61 46 6 48 39 50 7 2 2 1 0 0 2 0 0 0 1 85 49 25 32 1 0 0 0 0 0 0 0 0 0 0 0 0 0 0 0 0
11 18 27 29 7 4 8 0 2 2 26 1 3 0 23 5 0 0 0 7 1 2 11 59 34 17 0 0 0 3 0 0 0 0 8 0 0 0 0 0 0 0 0 0 0
10 13 19 11 16 16 8 12 9 1 1 8 7 10 8 1 0 0 2 4 0 0 1 5 1 0 0 3 0 5 1 9 22 16 2 0 0 0 0 0 0 0 0 0 0
15 12 12 0 1 18 2 1 0 1 0 3 1 3 10 8 1 0 47 8 0 0 0 10 0 0 6 9 7 0 0 0 5 0 0 0 0 0 0 0 0 0 0 0 0
17 17 10 0 0 0 1 12 14 6 0 3 0 9 24 18 1 11 20 0 1 0 0 14 5 10 17 1 4 0 0 3 10 0 0 0 0 0 0 0 0 0 0 0 0
13 17 1 0 0 0 0 3 1 4 0 3 1 0 11 7 0 1 0 1 0 0 5 0 1 13 1 0 8 0 0 9 0 0 0 0 0 0 0 0 0 0 0 0 0
8 5 0 0 6 2 0 3 6 0 0 0 2 6 0 0 1 19 3 4 4 4 0 1 1 9 8 0 0 0 0 1 0 1 7 0 0 0 0 0 0 0 0 0 0
1 2 0 0 1 3 0 0 0 0 0 0 0 0 0 1 1 3 0 0 1 0 0 1 1 1 0 1 0 0 0 0 0 0 0 0 0 0 0 0 0 0 0 0 0
0 0 0 0 1 2 1 1 0 0 0 0 0 0 0 0 0 0 2 2 1 3 3 1 1 0 1 0 0 0 1 0 0 0 0 0 0 0 0 0 0 0 0 0 0
0 0 0 0 0 0 1 0 2 0 0 0 0 0 0 0 0 0 1 0 1 1 0 0 1 2 1 2 1 1 0 0 0 0 0 0 0 0 0 0 0 0 0 0 0
0 0 0 0 0 0 0 0 0 0 0 1 0 0 0 4 0 15 2 0 0 0 0 0 0 1 1 3 1 1 0 0 0 0 0 0 0 0 0 0 0 0 0 0 0
0 0 0 0 0 0 0 0 0 0 0 0 0 1 6 4 9 0 0 0 0 0 0 0 0 1 1 0 0 1 0 0 0 0 0 0 0 0 0 0 0 0 0 0 0
0 0 0 0 0 0 1 0 0 4 0 0 2 0 2 0 0 0 0 0 0 0 0 0 0 0 0 0 0 0 0 0 0 0 0 0 0 0 0 0 0 0 0 0 0
0 0 0 0 0 0 0 0 0 0 0 0 0 0 0 0 0 0 0 0 0 0 0 0 0 0 0 0 0 0 0 0 0 0 0 0 0 0 0 0 0 0 0 0 0
0 0 0 1 0 0 0 0 2 0 0 0 0 0 0 0 0 0 0 0 0 0 0 0 0 0 0 0 0 0 0 0 0 0 0 0 0 0 0 0 0 0 0 0 0
0 0 1 0 0 0 1 0 0 0 0 0 0 0 0 0 0 0 0 0 0 0 0 0 0 0 0 0 0 0 0 0 0 0 0 0 0 0 0 0 0 0 0 0 0
0 0 0 0 0 0 0 0 1 0 0 1 0 0 0 0 0 0 0 0 0 0 0 0 0 0 0 0 0 0 0 0 0 0 0 0 0 0 0 0 0 0 0 0 0
1 1 1 0 2 0 0 0 0 2 7 2 0 1 0 0 0 0 0 0 0 0 0 0 0 0 0 0 0 0 0 0 0 0 0 0 0 0 0 0 0 0 0 0 0
CIN
-0 -0 -0 -0 -0 -0 -0 -0 -1 -0 -4 -1 -0 -3 -0 -2 -2 -1 -0 -0 -1 -12 -13 -5 -0 -14 -1 -3 -7 -38 -6 -15 -48 -3 -20 -0 -10 -11 -0 -0 -0 -0 -0 -30 -77
-0 -0 -1 -0 -1 -0 -1 -0 -0 -0 -0 -5 -2 -0 -1 -4 -0 -0 -0 -0 -0 -0 -0 -4 -0 -4 -0 -4 -4 -24 -0 -0 -0 -0 -7 -17 -0 -0 -0 -0 -0 -0 -66 -46 -97
-0 -0 -0 -1 -0 -0 -1 -0 -0 -0 -0 -0 -0 -0 -0 -2 -0 -0 -0 -0 -0 -0 -0 -1 -5 -0 -0 -2 -4 -7 -0 -0 -0 -0 -0 -2 -0 -0 -0 -0 -0 -0 -0 -0 -67
-1 -0 -0 -0 -0 -0 -0 -0 -0 -0 -0 -0 -0 -0 -6 -5 -0 -3 -9 -0 -0 -0 -1 -1 -6 -1 -0 -0 -7 -0 -0 -0 -0 -24 -0 -0 -0 -0 -0 -0 -0 -0 -0 -0 -73
-0 -0 -1 -0 -0 -0 -0 -0 -0 -0 -0 -0 -5 -9 -7 -0 -0 -0 -0 -0 -0 -1 -0 -0 -1 -3 -0 -1 -1 -4 -0 -0 -0 -9 -0 -0 -0 -0 -0 -0 -0 -0 -0 -0 -62
-1 -0 -0 -0 -0 -0 -0 -0 -0 -0 -0 -0 -3 -7 -1 -0 -0 -2 -0 -0 -0 -13 -0 -0 -2 -0 -1 -2 -3 -4 -3 -10 -18 -0 -0 -0 -0 -0 -0 -0 -0 -0 -0 -0 -0
-0 -0 -1 -0 -0 -0 -0 -0 -0 -0 -0 -0 -0 -0 -0 -8 -9 -4 -0 -0 -0 -0 -1 -1 -13 -0 -4 -3 -5 -2 -6 -10 -9 -0 -0 -0 -0 -0 -0 -0 -0 -0 -0 -0 -0
-0 -0 -0 -0 -0 -0 -0 -0 -1 -0 -0 -0 -0 -0 -0 -52 -26 -0 -0 -0 -0 -0 -0 -0 -0 -22 -7 -5 -1 -2 -2 -1 -6 -12 -0 -0 -0 -0 -0 -0 -0 -0 -0 -0 -0
-0 -0 -0 -0 -0 -0 -0 -0 -0 -1 -0 -0 -0 -1 -0 -52 -21 -0 -0 -0 -0 -0 -0 -0 -0 -1 -7 -2 -1 -5 -4 -0 -8 -13 -5 -0 -0 -0 -0 -0 -0 -0 -0 -0 -0
-1 -0 -0 -0 -0 -2 -16 -15 -6 -4 -9 -1 -2 -3 -12 -11 -27 -0 -0 -3 -0 -0 -0 -4 -4 -0 -3 -1 -0 -0 -0 -0 -0 -0 -0 -0 -0 -0 -0 -0 -0 -0 -0 -0 -0
-0 -0 -0 -0 -0 -9 -1 -0 -1 -1 -0 -9 -5 -9 -11 -4 -0 -0 -0 -26 -20 -0 -7 -0 -14 -3 -0 -0 -0 -2 -0 -0 -0 -0 -9 -0 -0 -0 -0 -0 -0 -0 -0 -0 -0
-0 -0 -0 -0 -1 -3 -13 -2 -1 -0 -0 -1 -1 -1 -20 -1 -0 -0 -1 -3 -0 -0 -0 -4 -0 -0 -0 -0 -0 -1 -3 -4 -9 -14 -11 -0 -0 -0 -0 -0 -0 -0 -0 -0 -0
-0 -0 -0 -0 -13 -2 -4 -3 -0 -3 -0 -1 -1 -0 -10 -16 -75 -0 -3 -1 -0 -0 -0 -0 -0 -0 -0 -2 -0 -0 -0 -0 -1 -20 -0 -0 -0 -0 -0 -0 -0 -0 -0 -0 -0
-0 -0 -0 -0 -0 -0 -0 -12 -7 -3 -0 -17 -0 -6 -2 -7 -19 -3 -11 -0 -1 -0 -0 -0 -4 -0 -0 -0 -1 -0 -0 -49 -9 -0 -0 -0 -0 -0 -0 -0 -0 -0 -0 -0 -0
-0 -0 -0 -0 -0 -0 -0 -2 -8 -1 -0 -11 -0 -0 -5 -1 -0 -0 -4 -1 -0 -0 -0 -0 -0 -1 -8 -0 -2 -0 -5 -16 -0 -0 -0 -0 -0 -0 -0 -0 -0 -0 -0 -0 -0
-0 -0 -0 -0 -2 -6 -1 -8 -1 -0 -0 -0 -0 -1 -0 -0 -0 -7 -0 -0 -0 -0 -0 -3 -37 -6 -7 -0 -0 -0 -0 -4 -0 -1 -2 -0 -0 -0 -0 -0 -0 -0 -0 -0 -0
-0 -0 -0 -0 -0 -2 -0 -0 -0 -0 -0 -0 -0 -0 -0 -0 -0 -0 -0 -0 -0 -0 -0 -2 -0 -0 -0 -0 -0 -0 -0 -0 -0 -2 -0 -0 -0 -0 -0 -0 -0 -0 -0 -0 -0
-0 -0 -0 -0 -1 -7 -1 -0 -0 -0 -0 -0 -0 -0 -0 -0 -0 -0 -4 -13 -3 -0 -0 -0 -0 -0 -0 -0 -0 -0 -0 -0 -0 -0 -0 -0 -0 -0 -0 -0 -0 -0 -0 -0 -0
-0 -0 -0 -0 -0 -0 -0 -0 -0 -0 -1 -0 -0 -0 -0 -0 -0 -0 -0 -0 -0 -0 -0 -0 -0 -0 -0 -0 -0 -0 -0 -0 -0 -0 -0 -0 -0 -0 -0 -0 -0 -0 -0 -0 -0
-0 -0 -0 -0 -0 -0 -0 -0 -0 -0 -0 -0 -0 -0 -0 -5 -2 -2 -12 -1 -0 -0 -0 -0 -0 -0 -0 -0 -0 -0 -0 -0 -0 -0 -0 -0 -0 -0 -0 -0 -0 -0 -0 -0 -0
-0 -0 -0 -0 -0 -0 -0 -0 -0 -1 -0 -0 -0 -2 -2 -17 -12 -0 -0 -0 -0 -0 -0 -0 -0 -0 -0 -0 -0 -0 -0 -0 -0 -0 -0 -0 -0 -0 -0 -0 -0 -0 -0 -0 -0
-0 -0 -0 -0 -0 -0 -0 -0 -0 -3 -0 -0 -19 -3 -0 -0 -0 -0 -0 -0 -0 -0 -0 -0 -0 -0 -0 -0 -0 -0 -0 -0 -0 -0 -0 -0 -0 -0 -0 -0 -0 -0 -0 -0 -0
-0 -0 -0 -0 -0 -0 -0 -5 -0 -0 -0 -0 -1 -0 -0 -0 -0 -0 -0 -0 -0 -0 -0 -0 -0 -0 -0 -0 -0 -0 -0 -0 -0 -0 -0 -0 -0 -0 -0 -0 -0 -0 -0 -0 -0
-0 -0 -0 -1 -0 -1 -0 -0 -0 -0 -0 -0 -0 -0 -0 -0 -0 -0 -0 -0 -0 -0 -0 -0 -0 -0 -0 -0 -0 -0 -0 -0 -0 -0 -0 -0 -0 -0 -0 -0 -0 -0 -0 -0 -0
-0 -0 -0 -0 -0 -0 -1 -0 -0 -0 -0 -0 -0 -0 -0 -0 -0 -0 -0 -0 -0 -0 -0 -0 -0 -0 -0 -0 -0 -0 -0 -0 -0 -0 -0 -0 -0 -0 -0 -0 -0 -0 -0 -0 -0
-0 -0 -0 -0 -0 -0 -0 -0 -4 -0 -0 -0 -0 -0 -0 -0 -0 -0 -0 -0 -0 -0 -0 -0 -0 -0 -0 -0 -0 -0 -0 -0 -0 -0 -0 -0 -0 -0 -0 -0 -0 -0 -0 -0 -0
-0 -0 -0 -0 -0 -0 -0 -0 -1 -1 -1 -0 -0 -2 -0 -0 -0 -0 -0 -0 -0 -0 -0 -0 -0 -0 -0 -0 -0 -0 -0 -0 -0 -0 -0 -0 -0 -0 -0 -0 -0 -0 -0 -0 -0
Wind_Speed
34 34 33 33 35 36 35 35 36 34 34 35 34 32 32 34 36 37 39 34 31 33 22 25 21 25 25 28 27 31 43 49 48 46 40 34 31 24 25 29 27 19 18 10 7
34 33 32 34 35 35 35 35 34 35 35 36 36 35 34 33 38 44 42 40 34 30 31 29 22 25 28 30 28 34 47 50 44 40 43 39 24 25 24 29 32 23 12 11 10
33 33 33 33 34 35 35 34 34 35 35 34 34 35 34 30 38 44 41 45 39 31 31 28 29 23 32 30 32 34 48 45 42 39 32 32 27 28 24 27 31 27 20 16 15
32 34 35 34 34 33 31 32 33 32 32 32 31 30 29 25 37 17 20 24 35 31 31 31 29 21 27 35 33 34 41 41 34 29 28 30 30 32 28 27 27 30 26 19 21
33 33 34 34 33 32 33 32 30 30 30 29 28 26 23 30 36 29 34 21 22 32 32 30 29 26 24 29 30 39 37 34 37 27 29 29 31 32 35 29 23 18 19 19 18
31 34 35 31 30 29 27 28 25 26 23 24 23 22 24 37 26 28 24 22 23 26 37 34 30 29 27 32 35 29 36 36 35 28 27 30 30 28 34 32 26 25 24 24 23
34 36 33 30 32 28 23 22 20 18 20 21 21 19 24 27 22 13 16 20 22 25 29 38 37 31 29 28 32 33 32 36 31 31 27 25 34 39 35 31 30 29 29 29 26
34 34 33 35 35 31 23 15 13 12 15 16 21 20 23 23 27 32 31 24 21 25 29 32 33 36 34 25 26 34 32 39 36 33 29 25 42 35 33 37 36 33 31 33 32
30 26 29 29 32 29 19 14 9 12 13 14 16 17 24 15 23 24 26 26 22 25 29 33 29 29 29 29 30 32 39 39 33 34 30 34 43 36 30 34 38 37 34 32 30
26 25 28 30 28 25 21 18 13 15 14 8 8 16 24 19 16 19 22 18 21 25 30 30 29 29 29 28 35 31 38 36 40 33 35 39 41 30 28 27 33 36 38 38 34
24 27 32 32 30 25 19 18 17 14 7 7 10 8 16 14 20 21 19 17 18 21 34 34 32 36 29 24 26 21 27 37 33 33 35 40 39 42 31 30 32 33 31 31 33
22 28 31 33 29 25 23 18 19 15 14 17 13 11 29 25 22 23 19 24 27 31 28 35 41 33 32 31 25 27 27 31 32 23 29 34 44 41 40 37 30 31 32 33 31
23 27 27 28 27 24 28 20 10 10 14 12 10 12 23 18 30 30 22 25 32 30 30 37 37 33 26 29 27 30 25 31 29 24 29 29 38 40 43 36 30 32 34 34 32
22 23 22 23 25 25 23 16 12 12 18 15 12 12 17 22 24 27 26 29 27 36 32 28 26 27 26 28 27 28 28 32 25 28 37 28 38 37 36 35 33 31 29 31 29
19 16 18 21 20 24 15 15 13 15 31 11 12 14 17 20 21 27 28 28 37 34 28 25 26 26 26 29 27 31 28 29 16 27 26 29 35 33 27 33 29 29 25 21 21
15 11 17 22 20 20 18 14 15 29 36 16 13 18 20 23 22 25 29 20 26 26 11 17 17 23 27 24 24 24 26 22 14 23 35 30 33 32 27 28 24 20 18 18 18
13 11 17 19 21 18 16 15 24 37 11 12 13 17 20 13 20 25 26 25 20 21 21 19 23 18 20 23 23 22 22 13 22 27 33 29 30 34 26 20 16 16 14 14 15
11 14 16 19 19 16 14 13 35 17 16 16 17 17 18 17 19 19 20 21 9 13 20 24 25 24 21 25 27 23 21 20 24 26 26 24 31 27 17 11 11 11 11 14 13
12 19 15 20 18 16 17 26 26 13 14 13 10 8 13 16 21 20 12 11 9 15 21 20 21 19 20 21 22 24 27 18 23 22 19 26 25 19 19 15 14 13 14 14 14
19 18 20 18 18 15 21 25 6 11 15 17 10 9 7 9 19 20 13 10 12 11 12 16 17 17 17 17 19 22 17 21 17 18 20 23 27 32 22 19 17 16 15 14 15
21 17 20 18 17 18 24 17 7 10 13 15 12 7 6 9 8 8 13 12 10 12 13 12 15 14 13 19 16 17 22 21 20 18 20 20 25 25 16 16 16 15 13 13 14
21 23 18 17 24 19 16 9 9 10 14 13 12 8 7 8 8 11 12 12 12 13 13 11 10 13 12 13 17 19 22 21 20 21 19 21 21 13 10 11 13 13 13 13 14
22 18 17 16 20 24 6 7 10 13 13 11 11 11 11 12 12 10 10 10 12 11 12 14 12 13 16 17 18 20 21 19 15 19 20 22 19 6 3 6 11 13 13 13 14
22 22 18 22 20 21 21 9 8 10 11 15 14 16 14 13 13 11 10 12 12 12 13 14 14 15 17 16 15 18 21 17 18 21 20 21 13 7 1 6 13 9 12 13 15
24 21 21 20 19 22 22 18 16 15 14 14 15 16 17 16 14 13 12 11 13 15 15 15 15 15 15 15 16 18 19 17 20 21 22 21 21 13 1 4 22 11 11 14 16
22 23 21 14 15 21 23 21 21 19 18 17 16 16 16 15 17 17 16 16 16 17 16 16 16 15 18 18 19 22 21 20 18 19 23 20 19 9 4 6 9 14 11 15 17
26 23 19 16 21 22 19 21 21 22 19 19 20 20 18 17 18 17 16 16 16 17 15 16 14 16 17 17 20 24 24 20 19 17 15 20 21 15 10 11 9 15 16 18 17
Wind_Direction
351 349 345 341 333 329 325 319 314 312 308 304 299 296 292 287 280 274 268 266 264 260 280 265 252 250 252 247 247 245 238 238 239 241 244 248 251 246 250 252 254 256 267 273 278
354 352 350 343 337 332 327 321 317 313 309 304 297 293 291 289 280 269 264 260 260 261 257 257 251 245 246 245 245 239 236 238 240 247 247 251 263 257 247 250 252 258 260 265 271
358 355 350 346 341 334 329 325 320 316 313 309 302 294 289 291 279 271 266 252 251 252 252 253 251 243 244 247 242 242 239 241 246 253 262 256 249 253 246 248 250 253 253 259 259
360 355 351 348 344 341 337 330 325 322 319 315 309 303 293 281 265 277 295 284 245 246 246 246 247 236 244 241 243 246 246 247 249 264 259 249 249 245 247 257 259 255 257 249 254
1 358 355 350 346 342 335 329 326 324 323 320 315 307 296 270 262 271 283 277 257 240 241 241 243 244 233 243 246 243 246 250 249 266 258 253 246 248 247 259 261 258 255 253 260
3 359 355 355 351 347 344 335 332 329 335 326 319 313 286 265 279 278 280 269 257 250 238 239 244 242 248 246 242 251 247 250 249 255 259 251 250 250 246 251 255 254 254 256 261
2 359 358 357 350 344 338 337 336 339 340 331 319 310 286 269 282 296 285 270 260 253 243 238 237 241 244 244 246 244 247 246 250 248 255 256 249 245 248 255 254 252 254 255 257
3 2 360 353 349 347 343 333 334 343 343 341 309 297 284 275 260 262 269 268 265 253 246 244 240 240 240 252 245 245 248 241 244 247 249 249 245 248 252 252 252 256 256 255 255
8 7 2 1 358 356 354 350 341 340 340 338 320 298 283 312 277 277 266 262 260 252 245 241 238 236 238 238 242 241 241 242 248 245 248 245 247 254 258 252 251 253 257 257 258
13 7 6 8 10 11 11 5 7 337 331 13 6 307 280 288 298 288 278 265 254 248 237 228 230 230 232 228 234 238 241 243 244 243 244 245 246 259 251 258 253 255 256 256 258
14 11 12 15 21 27 28 40 47 57 345 31 349 339 308 308 297 278 275 256 243 235 223 222 225 222 216 219 242 248 246 245 248 249 241 245 247 246 252 255 256 258 259 258 261
15 15 16 17 25 35 41 56 50 63 56 227 249 326 237 278 278 273 268 243 228 229 228 222 226 230 230 231 238 240 249 247 250 243 244 249 247 248 248 252 256 258 259 261 264
17 19 21 25 34 42 46 63 133 164 96 110 117 344 276 290 242 235 244 233 226 225 227 220 224 223 230 229 233 246 249 249 250 246 252 255 254 248 247 253 254 258 262 264 266
17 22 30 33 50 50 63 91 119 134 102 96 140 136 213 228 215 218 204 199 211 223 230 223 216 215 220 226 234 241 248 251 254 243 246 251 251 249 246 249 254 258 262 264 266
19 20 38 49 59 65 89 104 117 122 70 109 137 165 193 192 190 183 187 189 182 204 212 219 207 210 226 232 233 240 252 256 259 249 251 247 251 256 246 246 250 257 260 264 269
12 13 51 56 72 77 86 106 117 82 77 102 133 130 148 163 167 172 181 199 190 190 189 190 203 214 226 228 235 248 249 263 254 256 249 246 246 249 246 248 253 253 257 263 266
2 41 66 65 68 89 89 110 90 65 112 102 128 137 141 164 165 175 177 179 183 193 196 207 221 227 229 227 234 246 230 250 255 256 250 244 246 252 250 252 246 247 255 262 266
33 61 73 66 67 87 98 121 70 102 109 120 128 131 140 155 172 189 185 172 191 188 194 207 212 225 235 234 238 236 243 255 260 256 251 249 249 254 251 247 248 250 257 263 268
52 60 72 61 75 89 97 89 89 130 124 129 141 167 159 166 170 171 181 202 213 207 206 208 218 233 239 249 244 246 245 262 268 267 256 248 253 260 252 248 247 254 261 263 272
47 58 59 67 82 97 92 95 167 142 128 128 148 172 182 181 171 185 193 205 218 217 236 217 213 235 248 240 245 246 246 248 272 261 262 257 252 251 247 245 249 253 257 264 274
48 54 53 64 82 90 81 109 237 160 143 141 149 225 227 191 193 197 195 203 214 214 203 218 228 227 236 239 245 251 244 252 256 275 268 267 260 262 249 244 247 253 259 266 278
40 42 53 64 42 74 91 140 237 226 144 165 173 238 244 244 229 221 211 224 226 218 226 242 246 238 256 264 254 255 245 249 258 265 274 272 273 280 256 245 250 257 265 272 281
34 47 61 58 49 32 182 183 184 291 293 244 237 242 264 266 262 278 283 282 253 266 258 238 260 251 250 257 264 259 253 259 272 266 271 271 275 296 284 263 267 263 267 276 285
27 30 44 46 50 27 24 217 201 207 241 288 268 254 268 294 305 295 314 291 298 314 287 278 285 273 262 267 273 264 255 264 261 257 268 268 277 271 206 268 274 284 279 281 289
17 22 27 29 38 17 351 282 274 286 268 260 274 281 281 284 293 296 305 311 300 286 299 307 294 293 294 290 285 275 270 268 263 265 263 265 266 268 223 291 254 293 292 288 288
17 8 8 31 34 21 352 335 313 288 286 286 289 283 291 288 282 282 282 279 288 294 305 308 299 304 289 292 289 273 274 272 274 275 271 278 278 313 297 315 308 299 303 294 293
7 358 3 8 359 357 8 342 314 292 307 310 281 270 293 289 281 287 287 289 299 297 300 301 315 302 297 304 292 282 277 273 274 281 273 270 273 293 308 304 314 298 297 297 299